GFSFLT2_850_spd_252.txt.gz
Wind_Speed
33 31 28 28 26 26 25 29 33 33 35 37 36 37 37 37 35 31 29 28 27 26 25 24 23 22 22
38 36 33 34 34 32 31 32 34 32 33 35 38 40 40 40 38 34 32 31 29 29 27 25 24 24 23
32 32 33 34 35 35 37 32 36 33 32 33 35 39 42 41 40 37 35 32 32 31 28 27 26 26 25
37 37 38 34 34 37 38 35 38 38 37 38 38 41 42 42 41 39 37 35 33 31 29 30 27 27 26
39 40 39 37 39 37 39 42 40 41 40 40 41 43 43 43 42 41 38 37 34 32 31 31 29 27 27
43 42 42 44 40 39 41 40 43 42 45 45 44 45 44 44 42 41 40 38 35 33 32 31 30 28 28
40 43 46 46 42 41 40 44 49 49 45 45 46 49 47 41 39 40 38 37 36 34 33 31 29 28 28
43 44 41 40 44 40 42 43 46 48 47 45 44 47 46 42 40 38 39 38 36 35 33 31 29 29 29
36 38 38 39 36 42 48 46 45 44 45 45 45 42 38 36 38 36 38 38 36 36 33 30 29 28 27
31 32 31 32 32 36 39 46 47 41 43 39 42 40 31 36 36 32 37 36 36 35 31 29 25 24 31
28 29 29 29 27 28 40 39 43 42 39 33 38 40 34 20 22 30 33 33 36 31 27 23 26 31 31
24 25 25 24 24 30 34 36 36 33 29 29 28 30 35 32 26 20 26 33 32 29 28 30 31 29 24
22 22 21 21 21 24 30 31 30 30 28 28 24 22 22 25 24 19 15 22 24 27 31 29 25 23 31
19 16 18 18 19 21 28 29 28 27 24 21 21 21 19 16 15 14 19 21 23 23 21 19 21 26 28
19 21 21 21 22 21 24 25 25 26 23 20 19 17 12 12 17 22 22 22 20 17 19 22 25 26 26
21 22 22 23 23 21 22 22 23 21 19 16 13 10 14 19 20 19 18 16 14 19 21 23 25 23 25
18 19 20 21 22 21 21 20 18 16 14 12 15 17 16 15 14 11 10 12 15 17 19 22 27 26 27

GFSFLT2_850_spd_255.txt.gz
Wind_Speed
23 23 24 23 21 21 21 22 24 27 31 31 32 33 34 36 36 37 37 34 31 31 29 28 27 27 26
26 27 27 26 27 29 27 27 26 27 30 34 34 33 34 37 38 38 38 37 35 33 32 30 29 28 28
27 28 29 28 28 28 28 29 29 29 32 32 33 36 36 38 39 40 39 39 37 36 34 33 31 30 31
28 30 29 28 30 30 30 28 28 31 30 33 33 36 39 38 39 41 41 41 39 38 36 35 33 31 31
28 30 30 31 32 33 36 34 33 34 35 36 37 37 41 39 41 41 42 43 40 39 37 36 34 33 32
30 32 35 38 36 37 35 36 39 38 39 38 38 40 40 39 40 43 42 43 40 38 38 36 36 34 32
33 35 36 37 37 33 34 41 42 42 39 41 37 39 40 42 42 43 45 43 40 40 37 37 36 34 33
34 35 36 29 30 34 32 35 39 41 38 41 41 39 40 40 42 41 44 43 41 36 35 36 34 33 33
33 33 33 37 34 28 33 35 39 40 41 40 42 41 37 39 37 40 41 43 38 35 35 37 35 33 34
34 32 29 28 28 30 30 34 39 40 39 37 38 37 35 36 37 35 37 37 38 38 37 34 32 32 34
30 28 27 27 27 28 29 30 31 37 37 33 31 29 32 31 24 24 31 33 34 36 34 34 31 31 29
28 26 25 24 24 24 25 28 28 32 35 31 28 27 27 30 31 27 22 25 32 33 33 31 27 29 31
27 25 21 21 21 21 23 22 24 29 31 30 27 25 23 24 27 27 21 22 24 26 25 25 27 29 31
24 21 19 19 17 17 17 18 22 24 26 25 22 19 21 21 20 18 15 11 12 17 21 24 26 30 29
22 20 20 20 21 20 20 21 22 22 23 21 19 18 18 16 16 14 11 13 17 18 21 23 24 22 22
19 19 19 19 20 21 21 21 21 21 20 17 16 15 14 13 11 11 14 17 17 18 20 20 21 20 22
17 18 19 20 21 21 21 20 19 17 17 14 14 13 13 12 11 11 12 13 14 15 16 19 23 23 23

GFSFLT2_850_spd_258.txt.gz
Wind_Speed
23 21 20 20 19 19 21 23 24 24 26 26 28 29 30 32 31 32 33 34 33 31 32 31 29 28 26
27 23 23 21 22 22 22 23 23 25 25 27 28 29 30 32 33 33 34 36 35 33 33 33 32 31 29
24 24 23 25 24 24 23 25 28 28 28 30 30 31 31 31 34 35 35 36 38 37 34 36 35 34 32
26 27 25 26 26 24 24 25 26 26 26 27 29 30 32 32 32 35 35 37 37 39 39 38 38 36 34
29 27 27 27 27 25 25 25 28 30 33 32 32 32 35 36 36 37 35 36 36 39 40 40 40 37 36
28 28 26 25 24 25 25 29 32 33 35 33 32 34 34 34 35 34 34 35 37 38 39 40 40 38 37
27 29 27 25 25 28 30 32 33 29 32 35 33 37 33 33 32 32 35 36 40 39 38 39 41 42 39
29 27 25 28 29 30 27 25 28 33 35 40 39 38 34 36 35 34 33 35 35 37 38 38 41 42 36
26 26 26 26 27 28 33 33 33 35 31 35 38 38 38 38 35 38 35 34 33 33 35 37 38 38 34
28 28 26 28 27 27 28 31 31 34 32 33 33 31 33 32 32 30 31 31 33 32 32 33 34 35 36
25 25 26 27 25 25 26 29 31 33 30 29 30 29 29 28 26 27 27 25 27 29 28 27 31 33 35
25 26 25 23 22 21 22 23 26 28 26 29 30 28 26 26 26 24 23 24 23 25 27 30 30 31 31
26 24 22 21 21 21 22 24 24 23 24 25 25 23 23 23 24 23 21 20 18 21 26 29 29 29 28
22 21 21 22 21 20 17 18 16 17 17 18 19 20 21 20 20 20 18 12 10 15 18 21 22 24 25
21 21 21 21 20 20 19 18 17 18 17 17 16 17 17 17 16 15 13 13 12 8 11 14 18 21 23
18 20 20 20 21 20 19 19 20 19 16 15 15 14 13 12 13 12 11 10 10 12 15 18 19 20 21
16 17 18 18 18 18 18 19 20 19 16 15 14 12 13 12 10 10 11 11 13 15 15 16 17 17 19

GFSFLT2_850_spd_261.txt.gz
Wind_Speed
31 28 28 29 27 29 28 29 30 30 28 28 28 28 29 31 32 32 32 31 33 33 30 29 29 28 29
28 28 29 29 27 26 26 27 27 29 28 28 28 28 29 30 31 32 32 34 35 35 34 32 30 30 31
34 31 28 28 27 26 26 26 27 27 28 29 30 32 31 30 31 31 31 35 36 36 36 36 35 34 33
36 32 29 27 26 28 28 28 28 28 29 30 29 29 32 32 33 32 34 34 34 37 38 36 36 37 36
32 32 31 32 32 29 28 26 26 27 28 28 30 31 30 32 33 34 33 36 36 35 37 38 37 37 38
37 35 32 30 29 26 26 27 25 25 27 28 29 32 34 33 32 31 32 34 34 34 34 36 38 38 38
33 32 30 27 27 28 25 24 26 26 28 32 31 28 27 30 29 31 31 31 32 32 34 35 37 39 38
26 24 23 21 23 24 23 24 29 29 25 29 28 33 34 32 31 30 29 31 32 33 32 34 37 37 36
23 24 25 24 24 23 24 27 29 30 29 32 34 34 30 31 31 32 32 33 32 32 32 31 31 31 33
26 27 26 26 26 26 26 28 29 30 29 29 30 27 29 29 25 26 25 24 23 25 30 30 29 29 30
26 24 25 24 24 26 25 26 28 30 28 27 29 28 27 30 28 26 24 26 28 28 27 26 26 27 32
25 23 23 23 22 21 21 23 25 26 22 23 27 27 27 28 27 24 23 23 23 21 21 22 26 27 29
26 23 21 20 18 21 22 23 23 22 21 23 25 25 25 24 25 23 21 20 20 20 18 18 18 26 29
20 20 20 20 21 20 21 22 21 18 19 20 20 21 20 21 21 20 19 15 16 14 14 17 19 24 25
18 19 20 20 21 21 22 21 22 19 18 19 18 19 18 18 18 17 15 14 12 12 11 11 13 15 18
12 16 19 20 20 22 22 21 22 22 21 19 19 17 17 15 14 14 12 12 11 10 10 12 14 15 18
11 14 17 18 20 21 21 22 21 21 20 20 19 18 17 15 12 10 10 10 10 11 12 14 15 13 15